Regional Weather Roundup
Issued by NWS Lake Charles, LA

Current Version | Previous Version | Text Only | Print | Product List | Glossary On
Versions: 1 2 3 4 5 6 7 8 9 10 11 12 13 14 15 16 17 18 19 20 21 22 23 24 25 26 27
000
ASUS44 KLCH 280210
RWRLCH
REGIONAL WEATHER ROUNDUP
NATIONAL WEATHER SERVICE LAKE CHARLES LA
900 PM CDT FRI MAY 27 2016

Note: "fair" indicates few or no clouds below 12,000 feet with no
significant weather and/or obstructions to visibility.


ACROSS SOUTHEAST TEXAS

CITY           SKY/WX    TMP DP  RH WIND       PRES   REMARKS
BEAUMONT       CLOUDY    68  68 100 SE5       29.89R
BEAUMONT CITY  NOT AVBL
ORANGE         CLOUDY    68  65  92 SE7       29.93S
JASPER         LGT RAIN  65  64  95 SE17G29   29.78F
$$

ACROSS CENTRAL LOUISIANA

CITY           SKY/WX    TMP DP  RH WIND       PRES   REMARKS
LEESVILLE      LGT RAIN  66  65  96 E12G22    29.84F
FULLERTON      RAIN      66  63  90 VRB7      29.84F
ALEXANDRIA INT RAIN      66  66 100 SE6       29.93S
ESLER FIELD    RAIN      68  65  90 CALM      29.95S
DERIDDER       CLOUDY    67  66  95 SE10      29.90F
OAKDALE        TSTM      67  66  97 NE5       29.95S
OPELOUSAS      CLOUDY    66  64  94 N9        29.98R
$$

ACROSS SOUTHWEST AND SOUTH CENTRAL LOUISIANA

CITY           SKY/WX    TMP DP  RH WIND       PRES   REMARKS
SULPHUR        CLOUDY    68  67  96 E12       29.93S
LAKE CHARLES   LGT RAIN  67  66  97 E12       29.92F
CHENNAULT INT  CLOUDY    68  66  94 CALM      29.90  THUNDER
CAMERON PHI    MOCLDY    68  66  94 E10       29.96F
DEQUINCY       CLOUDY    66  66 100 SE7       29.91F
JENNINGS       TSTM      66  64  94 E10       29.97R
LAFAYETTE      LGT RAIN  68  65  90 N13       29.99S
NEW IBERIA     HVY RAIN  67  65  93 NW15G24   30.00R FOG
ABBEVILLE      RAIN      66  65  99 N7        30.00F
PATTERSON      PTCLDY    75  68  78 SW3       29.96R
SALT POINT       N/A     78  71  79 CALM      29.93R
$$

SELECTED SITES ACROSS THE REGION

CITY           SKY/WX    TMP DP  RH WIND       PRES   REMARKS
HOUSTON BUSH   CLOUDY    68  63  84 W14G24    29.74F THUNDER
HOUSTON HOBBY  TSTM      68  64  87 SE15G24   29.76F
GALVESTON      TSTM      67  65  93 NW31G44   29.88R FOG
COLLEGE STAT   CLOUDY    68  67  96 NE3       29.77R
CONROE         CLOUDY    67  64  90 SE8       29.78R
HUNTSVILLE     CLOUDY    67  64  90 VRB3      29.80R
LUFKIN         CLOUDY    66  64  93 SE14      29.81R
SHREVEPORT     CLOUDY    68  64  87 S7        29.78R
MONROE         CLOUDY    68  67  96 S6        29.92S
NATCHEZ MS     CLOUDY    66  63  88 CALM      30.01R
BATON ROUGE    MOCLDY    79  65  62 S5        29.95R
N.O. INTL ARPT CLOUDY    79  69  71 SE10      29.93S
SLIDELL        CLOUDY    78  70  76 SE7       29.95R
$$

MARINE REPORTS

STATION/POSITION TIME  SKY/WX   TEMP    WIND        PRES    VSBY
                                AIR SEA DIR/SP/G
                 (UTC)          (F)     (DEG/KT/KT) (MB)    (MI)
BUOY 30 S HIGH I 0150            72 81  350/ 16/ 17 1011.3R
WVE H/P(F/S)=  5/ 8

SEA RIM ST PARK  0200            68      90/  4/  5 1014.1R
PORT ARTHUR      0100                    60/  4/  8 1012.0R
SABINE PASS N    0100                    90/  9/ 11 1013.4R
TEXAS POINT      NOT AVBL
CALCASIEU PASS   0100                   110/  5/  7 1013.2R
LK CHARLES BEACH 0100                               1014.4R
MARSH ISLAND     0100            80                   N/A
FRESH WATER LOCK 0100                   150/  8/ 15 1013.9R
AMERADA PASS     0100                   140/  6/ 11 1012.8R
$$




USA.gov is the U.S. government's official web portal to all federal, state and local government web resources and services.